Home   Weather   Minsk   Past weeks
Flag for Belarus

Past Weather in Minsk, Belarus — Yesterday and Last 2 Weeks

Now
77 °F

Passing clouds.


Feels Like: 78 °F
Forecast: 73 / 56 °F
Wind: 6 mph from West

Location: Minsk

Current Time: May 23, 2019 at 4:47:35 pm

Latest Report: May 23, 2019 at 4:00 pm


Visibility: N/A

Pressure: 29.74 "Hg

Humidity: 42%

Dew Point: 52 °F

Location of MinskLocation

Past Weather in Minsk — Graph

°F

Minsk Temperature Yesterday

Maximum temperature yesterday: 75 °F (at 5:00 pm)
Minimum temperature yesterday: 54 °F (at 4:00 am)
Average temperature yesterday: 65 °F

High & Low Weather Summary for the Past Weeks

 TemperatureHumidityPressure
High79 °F (May 20, 3:30 pm)100% (May 10, 12:01 am)30.24 "Hg (May 10, 12:01 am)
Low41 °F (May 12, 5:06 am)33% (May 18, 1:30 pm)29.68 "Hg (May 10, 5:30 am)
Average59 °F74%29.99 "Hg
* Reported May 8 3:00 pm — May 23 3:00 pm, Minsk. Weather by CustomWeather, © 2019

Note: Actual official high and low records may vary slightly from our data, if they occured in-between our weather recording intervals... More about our weather records

Advertising

Minsk Weather History for the Previous 24 Hours

Scroll right to see more
 ConditionsComfort  
Time TempWeatherWind HumidityBarometerVisibility
3:00 pm
Thu, May 23
77 °FPassing clouds.3 mph39%29.77 "HgN/A
2:30 pm75 °FSunny.1 mph44%29.77 "Hg10 mi
2:00 pm73 °FSunny.6 mph47%29.77 "Hg10 mi
1:30 pm73 °FPassing clouds.3 mph47%29.77 "HgN/A
1:00 pm73 °FPassing clouds.3 mph47%29.77 "HgN/A
12:30 pm73 °FPassing clouds.6 mph47%29.77 "HgN/A
12:00 pm75 °FSunny.1 mph44%29.77 "Hg10 mi
11:30 am73 °FPassing clouds.3 mph47%29.77 "HgN/A
11:00 am73 °FScattered clouds.3 mph50%29.77 "HgN/A
10:30 am72 °FPassing clouds.3 mph50%29.77 "HgN/A
10:00 am72 °FSunny.3 mph50%29.77 "Hg10 mi
9:30 am70 °FPassing clouds.3 mph53%29.77 "HgN/A
9:00 am68 °FSunny.3 mph60%29.77 "Hg10 mi
8:30 am68 °FSunny.3 mph56%29.77 "Hg10 mi
8:00 am64 °FSunny.6 mph64%29.77 "Hg10 mi
7:30 am61 °FSunny.6 mph72%29.77 "Hg10 mi
7:00 am59 °FSunny.3 mph77%29.77 "Hg10 mi
6:30 am57 °FSunny.3 mph82%29.77 "Hg10 mi
6:00 am55 °FSunny.3 mph88%29.77 "Hg10 mi
5:30 am54 °FClear.3 mph88%29.77 "Hg10 mi
5:00 am54 °FClear.3 mph88%29.77 "Hg10 mi
4:30 am54 °FClear.1 mph88%29.77 "Hg10 mi
4:00 am54 °FClear.6 mph88%29.77 "Hg10 mi
3:30 am55 °FClear.3 mph82%29.77 "Hg10 mi
3:00 am55 °FClear.3 mph82%29.77 "Hg10 mi
2:30 am54 °FClear.3 mph88%29.77 "Hg10 mi
2:00 am55 °FClear.1 mph88%29.77 "Hg10 mi
1:30 am55 °FClear.3 mph88%29.77 "Hg10 mi
1:00 am57 °FClear.1 mph82%29.77 "Hg10 mi
12:30 am59 °FClear.1 mph77%29.77 "Hg10 mi
12:00 am57 °FClear.1 mph88%29.77 "Hg10 mi
11:30 pm
Wed, May 22
55 °FClear.1 mph94%29.77 "Hg10 mi
11:00 pm57 °FClear.No wind82%29.77 "Hg10 mi
10:30 pm61 °FClear.1 mph77%29.77 "Hg10 mi
10:00 pm61 °FSunny.1 mph72%29.77 "Hg10 mi
9:30 pm64 °FSunny.1 mph64%29.77 "Hg10 mi
9:00 pm70 °FSunny.1 mph53%29.77 "Hg10 mi
8:30 pm70 °FSunny.3 mph53%29.74 "Hg10 mi
8:00 pm72 °FSunny.3 mph50%29.74 "Hg10 mi
7:30 pm73 °FPassing clouds.3 mph47%29.74 "HgN/A
7:00 pm73 °FPassing clouds.6 mph47%29.74 "HgN/A
6:30 pm73 °FPassing clouds.6 mph44%29.74 "HgN/A
6:00 pm75 °FPassing clouds.3 mph39%29.77 "HgN/A
5:30 pm75 °FPassing clouds.3 mph41%29.77 "HgN/A
5:00 pm75 °FPassing clouds.6 mph41%29.77 "HgN/A
4:30 pm73 °FPassing clouds.8 mph44%29.77 "HgN/A
4:00 pm73 °FSunny.6 mph44%29.77 "Hg10 mi
Weather by CustomWeather, © 2019

See weather overview